Location: Newark
(35.6799°N, 139.7636°E)
Time: 02:14:28
(UTC+00:00)

Courier 1B Rocket - Pass Details

Date: 14 December 2019
Orbit: 920 x 1202 km, 28.2° (Epoch: 23 January)

Event Time Altitude Azimuth Distance (km) Brightness Sun altitude
Exits shadow 18:25:14 27° 152° (SSE) 1,956 6.7 -39.2°
Drops below altitude 10° 18:30:24 10° 105° (ESE) 2,881 8.1 -38.2°
Sets 18:33:26 0° 94° (E) 3,788 9.0 -37.5°
